Tracking 19827 objects as of 22-Aug-2019
HD Live streaming from Space Station
objects crossing your sky now

COSMOS 2251 DEB

Track COSMOS 2251 DEB now!
10-day predictions


NORAD ID: 37544
Int'l Code: 1993-036BNZ
Perigee: 619.3 km
Apogee: 665.7 km
Inclination: 74.0 °
Period: 97.4 minutes
Semi major axis: 7013 km
RCS: 0.0115 m2 (small)
Launch date: June 16, 1993
Source: Commonwealth of Independent States (former USSR) (CIS)
Launch site: PLESETSK MISSILE AND SPACE COMPLEX (PKMTR)

Note: This is SATELLITE DEBRIS
aabbcc
Your satellite tracking list
Your tracking list is empty




NASA's NSSDC Master Catalog

Two Line Element Set (TLE):
1 37544U 93036BNZ 19232.32137082  .00001770  00000-0  24746-3 0  9998
2 37544  73.9730 227.3656 0033074 336.2703  23.6944 14.78092388528649
Source of the keplerian elements: AFSPC